Location: Conflandey
(47.7287°N, 6.0456°E)
Time: 02:55:18
(UTC+00:00)

Cosmos 1821 Rocket - Pass Details

Date: 24 October 2021
Orbit: 944 x 1005 km, 82.9° (Epoch: 05 December)

Event Time Altitude Azimuth Distance (km) Brightness Sun altitude
Rises 17:14:17 0° 188° (S) 3,719 7.3 -7.9°
Reaches altitude 10° 17:16:48 10° 189° (S) 2,772 6.6 -8.3°
Maximum altitude 17:23:12 86° 278° (W) 1,009 4.2 -9.4°
Drops below altitude 10° 17:29:35 10° 8° (N) 2,764 6.2 -10.5°
Sets 17:32:06 0° 9° (N) 3,708 6.9 -10.9°
